| time (UTC) | temp F | wind direction | speed MPH | gust MPH | rain 1hr in | rain 24hr in | rain mn in | humidity % | barometer mb |
| 20260507112703 | 56 | 109 | 7.0 | 13.0 | 0.00 | 0.00 | 0.00 | 69 | 1015.8 |
| 20260507111803 | 56 | 181 | 6.0 | 10.0 | 0.00 | 0.00 | 0.00 | 66 | 1015.8 |
| 20260507111118 | 56 | 181 | 6.0 | 10.0 | 0.00 | 0.00 | 0.00 | 65 | 1015.9 |
| 20260507110003 | 55 | 154 | 7.0 | 9.0 | 0.00 | 0.00 | 0.00 | 65 | 1016.0 |
| 20260507105403 | 55 | 132 | 7.0 | 9.0 | 0.00 | 0.00 | 0.00 | 64 | 1016.0 |
| 20260507104503 | 54 | 116 | 8.0 | 11.0 | 0.00 | 0.00 | 0.00 | 68 | 1016.1 |
| 20260507103817 | 54 | 126 | 7.0 | 11.0 | 0.00 | 0.00 | 0.00 | 69 | 1016.1 |
| 20260507102703 | 54 | 134 | 6.0 | 11.0 | 0.00 | 0.00 | 0.00 | 70 | 1016.2 |
| 20260507101803 | 53 | 111 | 5.0 | 7.0 | 0.00 | 0.00 | 0.00 | 73 | 1016.1 |
| 20260507100903 | 53 | 108 | 5.0 | 7.0 | 0.00 | 0.00 | 0.00 | 75 | 1016.2 |
| 20260507100004 | 52 | 110 | 6.0 | 10.0 | 0.00 | 0.00 | 0.00 | 78 | 1016.1 |
| 20260507095403 | 51 | 119 | 6.0 | 10.0 | 0.00 | 0.00 | 0.00 | 78 | 1016.2 |
| 20260507094503 | 50 | 111 | 7.0 | 10.0 | 0.00 | 0.00 | 0.00 | 80 | 1016.1 |
| 20260507093817 | 49 | 114 | 7.0 | 10.0 | 0.00 | 0.00 | 0.00 | 80 | 1016.2 |
| 20260507092918 | 49 | 113 | 7.0 | 11.0 | 0.00 | 0.00 | 0.00 | 81 | 1016.1 |
| 20260507091803 | 48 | 117 | 5.0 | 8.0 | 0.00 | 0.00 | 0.00 | 82 | 1016.1 |
| 20260507090903 | 48 | 118 | 4.0 | 7.0 | 0.00 | 0.00 | 0.00 | 83 | 1016.1 |
| 20260507090004 | 47 | 114 | 5.0 | 8.0 | 0.00 | 0.00 | 0.00 | 84 | 1016.2 |
| 20260507085403 | 46 | 100 | 6.0 | 8.0 | 0.00 | 0.00 | 0.00 | 84 | 1016.2 |
| 20260507084503 | 46 | 96 | 6.0 | 8.0 | 0.00 | 0.00 | 0.00 | 85 | 1016.2 |
| 20260507083816 | 46 | 98 | 5.0 | 7.0 | 0.00 | 0.00 | 0.00 | 85 | 1016.3 |
| 20260507082703 | 45 | 95 | 4.0 | 5.0 | 0.00 | 0.00 | 0.00 | 86 | 1016.4 |
| 20260507081803 | 45 | 109 | 4.0 | 6.0 | 0.00 | 0.00 | 0.00 | 85 | 1016.4 |
| 20260507080903 | 45 | 120 | 4.0 | 6.0 | 0.00 | 0.00 | 0.00 | 86 | 1016.3 |
| 20260507080004 | 45 | 109 | 5.0 | 7.0 | 0.00 | 0.00 | 0.00 | 86 | 1016.1 |
| 20260507075403 | 44 | 108 | 5.0 | 7.0 | 0.00 | 0.00 | 0.00 | 86 | 1016.1 |
| 20260507074717 | 44 | 112 | 5.0 | 6.0 | 0.00 | 0.00 | 0.00 | 86 | 1016.2 |
| 20260507073603 | 44 | 105 | 5.0 | 6.0 | 0.00 | 0.00 | 0.00 | 87 | 1016.0 |
| 20260507072703 | 44 | 105 | 4.0 | 6.0 | 0.00 | 0.00 | 0.00 | 87 | 1016.1 |
| 20260507071803 | 44 | 109 | 4.0 | 6.0 | 0.00 | 0.00 | 0.00 | 87 | 1016.1 |
| 20260507070903 | 44 | 109 | 4.0 | 7.0 | 0.00 | 0.00 | 0.00 | 88 | 1016.0 |
| 20260507070005 | 43 | 110 | 5.0 | 7.0 | 0.00 | 0.00 | 0.00 | 88 | 1015.9 |
| 20260507065403 | 44 | 111 | 4.0 | 4.0 | 0.00 | 0.00 | 0.00 | 88 | 1015.8 |
| 20260507064503 | 43 | 111 | 5.0 | 7.0 | 0.00 | 0.00 | 0.00 | 88 | 1015.8 |
| 20260507063603 | 43 | 111 | 6.0 | 7.0 | 0.00 | 0.00 | 0.00 | 88 | 1015.8 |
| 20260507062703 | 43 | 105 | 5.0 | 7.0 | 0.00 | 0.00 | 0.00 | 88 | 1015.7 |
| 20260507061803 | 43 | 107 | 6.0 | 7.0 | 0.00 | 0.00 | 0.00 | 88 | 1015.7 |
| 20260507060903 | 43 | 104 | 5.0 | 7.0 | 0.00 | 0.00 | 0.00 | 88 | 1015.7 |
| 20260507060003 | 43 | 109 | 5.0 | 7.0 | 0.00 | 0.00 | 0.00 | 88 | 1015.7 |
| 20260507055617 | 43 | 105 | 5.0 | 7.0 | 0.00 | 0.00 | 0.00 | 88 | 1015.7 |
| 20260507054503 | 43 | 104 | 5.0 | 7.0 | 0.00 | 0.00 | 0.00 | 88 | 1015.6 |
| 20260507053817 | 43 | 103 | 5.0 | 6.0 | 0.00 | 0.00 | 0.00 | 88 | 1015.6 |
| 20260507052703 | 43 | 96 | 4.0 | 7.0 | 0.00 | 0.00 | 0.00 | 88 | 1015.5 |
| 20260507051803 | 43 | 104 | 4.0 | 6.0 | 0.00 | 0.00 | 0.00 | 88 | 1015.6 |
| 20260507050903 | 43 | 106 | 4.0 | 4.0 | 0.00 | 0.00 | 0.00 | 88 | 1015.5 |
| 20260507050003 | 43 | 115 | 3.0 | 4.0 | 0.00 | 0.00 | 0.00 | 88 | 1015.6 |
| 20260507045403 | 43 | 113 | 3.0 | 3.0 | 0.00 | 0.00 | 0.00 | 88 | 1015.5 |
| 20260507044503 | 43 | 112 | 3.0 | 4.0 | 0.00 | 0.00 | 0.00 | 88 | 1015.5 |
| 20260507043817 | 43 | 110 | 3.0 | 4.0 | 0.00 | 0.00 | 0.00 | 88 | 1015.4 |
| 20260507042703 | 43 | 108 | 3.0 | 6.0 | 0.00 | 0.00 | 0.00 | 87 | 1015.4 |
| 20260507041803 | 43 | 106 | 4.0 | 6.0 | 0.00 | 0.00 | 0.00 | 87 | 1015.3 |
| 20260507040903 | 43 | 106 | 3.0 | 4.0 | 0.00 | 0.00 | 0.00 | 87 | 1015.5 |
| 20260507040003 | 43 | 102 | 3.0 | 4.0 | 0.00 | 0.00 | 0.00 | 87 | 1015.4 |
| 20260507035403 | 43 | 105 | 3.0 | 4.0 | 0.00 | 0.00 | 0.00 | 87 | 1015.4 |
| 20260507034503 | 43 | 108 | 2.0 | 3.0 | 0.00 | 0.00 | 0.00 | 87 | 1015.5 |
| 20260507033603 | 43 | 112 | 2.0 | 3.0 | 0.00 | 0.00 | 0.00 | 86 | 1015.5 |
| 20260507032703 | 43 | 82 | 0.0 | 1.0 | 0.00 | 0.00 | 0.00 | 86 | 1015.5 |
| 20260507031803 | 43 | 96 | 1.0 | 3.0 | 0.00 | 0.00 | 0.00 | 86 | 1015.5 |
| 20260507030903 | 44 | 96 | 2.0 | 3.0 | 0.00 | 0.00 | 0.00 | 86 | 1015.6 |
| 20260507030003 | 44 | 90 | 1.0 | 3.0 | 0.00 | 0.00 | 0.00 | 86 | 1015.5 |
| 20260507025403 | 44 | 88 | 1.0 | 2.0 | 0.00 | 0.00 | 0.00 | 86 | 1015.6 |
| 20260507024503 | 44 | 92 | 2.0 | 3.0 | 0.00 | 0.00 | 0.00 | 86 | 1015.6 |
| 20260507023603 | 44 | 108 | 3.0 | 4.0 | 0.00 | 0.00 | 0.00 | 86 | 1015.5 |
| 20260507022703 | 44 | 104 | 3.0 | 5.0 | 0.00 | 0.00 | 0.00 | 86 | 1015.6 |
| 20260507021803 | 44 | 106 | 3.0 | 5.0 | 0.00 | 0.00 | 0.00 | 86 | 1015.5 |
| 20260507021116 | 44 | 106 | 3.0 | 5.0 | 0.00 | 0.00 | 0.00 | 86 | 1015.6 |
| 20260507020003 | 44 | 106 | 4.0 | 5.0 | 0.00 | 0.00 | 0.00 | 86 | 1015.5 |
| 20260507015403 | 44 | 108 | 3.0 | 5.0 | 0.00 | 0.00 | 0.00 | 86 | 1015.5 |
| 20260507014504 | 44 | 94 | 3.0 | 4.0 | 0.00 | 0.00 | 0.00 | 85 | 1015.5 |
| 20260507013603 | 44 | 105 | 4.0 | 6.0 | 0.00 | 0.00 | 0.00 | 85 | 1015.5 |
| 20260507012704 | 44 | 110 | 3.0 | 5.0 | 0.00 | 0.00 | 0.00 | 85 | 1015.5 |
| 20260507011803 | 44 | 107 | 5.0 | 6.0 | 0.00 | 0.00 | 0.00 | 85 | 1015.6 |
| 20260507010904 | 45 | 103 | 5.0 | 6.0 | 0.00 | 0.00 | 0.00 | 84 | 1015.6 |
| 20260507010218 | 45 | 102 | 3.0 | 5.0 | 0.00 | 0.00 | 0.00 | 84 | 1015.6 |
| 20260507005403 | 45 | 103 | 4.0 | 5.0 | 0.00 | 0.00 | 0.00 | 84 | 1015.6 |
| 20260507004503 | 45 | 106 | 5.0 | 7.0 | 0.00 | 0.00 | 0.00 | 84 | 1015.5 |
| 20260507003603 | 45 | 107 | 5.0 | 8.0 | 0.00 | 0.00 | 0.00 | 84 | 1015.5 |
| 20260507002704 | 45 | 104 | 6.0 | 9.0 | 0.00 | 0.00 | 0.00 | 83 | 1015.5 |
| 20260507001804 | 46 | 96 | 6.0 | 9.0 | 0.00 | 0.00 | 0.00 | 83 | 1015.6 |
| 20260507000904 | 46 | 106 | 6.0 | 10.0 | 0.00 | 0.00 | 0.00 | 83 | 1015.8 |
| 20260507000004 | 46 | 107 | 5.0 | 8.0 | 0.00 | 0.00 | 0.00 | 82 | 1015.7 |
| 20260506235403 | 46 | 104 | 5.0 | 6.0 | 0.00 | 0.00 | 0.00 | 82 | 1015.7 |
| 20260506234503 | 46 | 102 | 5.0 | 6.0 | 0.00 | 0.00 | 0.00 | 82 | 1015.6 |
| 20260506233603 | 46 | 105 | 7.0 | 9.0 | 0.00 | 0.00 | 0.00 | 81 | 1015.6 |
| 20260506232703 | 46 | 100 | 7.0 | 10.0 | 0.00 | 0.00 | 0.00 | 80 | 1015.6 |
| 20260506231803 | 46 | 103 | 9.0 | 13.0 | 0.00 | 0.00 | 0.00 | 80 | 1015.6 |
| 20260506230903 | 46 | 106 | 8.0 | 11.0 | 0.00 | 0.00 | 0.00 | 79 | 1015.6 |
| 20260506230005 | 46 | 107 | 8.0 | 11.0 | 0.00 | 0.00 | 0.00 | 78 | 1015.6 |
| 20260506225403 | 47 | 104 | 6.0 | 9.0 | 0.00 | 0.00 | 0.00 | 78 | 1015.6 |
| 20260506224503 | 47 | 95 | 6.0 | 8.0 | 0.00 | 0.00 | 0.00 | 77 | 1015.6 |
| 20260506223603 | 47 | 94 | 6.0 | 8.0 | 0.00 | 0.00 | 0.00 | 77 | 1015.6 |
| 20260506222703 | 47 | 101 | 5.0 | 7.0 | 0.00 | 0.00 | 0.00 | 77 | 1015.4 |
| 20260506221803 | 47 | 99 | 5.0 | 7.0 | 0.00 | 0.00 | 0.00 | 76 | 1015.5 |
| 20260506220903 | 47 | 94 | 5.0 | 8.0 | 0.00 | 0.00 | 0.00 | 76 | 1015.6 |
| 20260506220218 | 48 | 92 | 6.0 | 8.0 | 0.00 | 0.00 | 0.00 | 75 | 1015.5 |
| 20260506215403 | 48 | 98 | 5.0 | 8.0 | 0.00 | 0.00 | 0.00 | 74 | 1015.3 |
| 20260506214503 | 48 | 97 | 6.0 | 9.0 | 0.00 | 0.00 | 0.00 | 74 | 1015.3 |
| 20260506213603 | 48 | 92 | 7.0 | 10.0 | 0.00 | 0.00 | 0.00 | 72 | 1015.2 |
| 20260506212918 | 48 | 91 | 7.0 | 10.0 | 0.00 | 0.00 | 0.00 | 72 | 1015.2 |
| 20260506211803 | 48 | 95 | 7.0 | 9.0 | 0.00 | 0.00 | 0.00 | 70 | 1015.1 |
| 20260506210903 | 48 | 92 | 6.0 | 8.0 | 0.00 | 0.00 | 0.00 | 68 | 1015.1 |
| 20260506210004 | 49 | 93 | 5.0 | 6.0 | 0.00 | 0.00 | 0.00 | 68 | 1015.1 |
| 20260506205617 | 49 | 97 | 5.0 | 6.0 | 0.00 | 0.00 | 0.00 | 68 | 1015.0 |
| 20260506204503 | 49 | 80 | 5.0 | 7.0 | 0.00 | 0.00 | 0.00 | 67 | 1015.0 |
| 20260506203603 | 49 | 81 | 4.0 | 7.0 | 0.00 | 0.00 | 0.00 | 66 | 1014.9 |
| 20260506202703 | 49 | 80 | 4.0 | 5.0 | 0.00 | 0.00 | 0.00 | 64 | 1014.8 |
| 20260506201803 | 50 | 79 | 3.0 | 5.0 | 0.00 | 0.00 | 0.00 | 63 | 1014.6 |
| 20260506200903 | 50 | 86 | 3.0 | 6.0 | 0.00 | 0.00 | 0.00 | 62 | 1014.6 |
| 20260506200003 | 50 | 85 | 3.0 | 5.0 | 0.00 | 0.00 | 0.00 | 61 | 1014.5 |
| 20260506195617 | 50 | 83 | 3.0 | 5.0 | 0.00 | 0.00 | 0.00 | 61 | 1014.5 |
| 20260506194503 | 50 | 82 | 3.0 | 5.0 | 0.00 | 0.00 | 0.00 | 60 | 1014.3 |
| 20260506193603 | 51 | 90 | 2.0 | 3.0 | 0.00 | 0.00 | 0.00 | 60 | 1014.4 |
| 20260506192917 | 51 | 94 | 3.0 | 6.0 | 0.00 | 0.00 | 0.00 | 59 | 1014.3 |
| 20260506191803 | 52 | 93 | 2.0 | 4.0 | 0.00 | 0.00 | 0.00 | 58 | 1014.5 |
| 20260506191118 | 52 | 91 | 3.0 | 4.0 | 0.00 | 0.00 | 0.00 | 58 | 1014.4 |
| 20260506190217 | 52 | 98 | 3.0 | 4.0 | 0.00 | 0.00 | 0.00 | 58 | 1014.3 |
| 20260506185403 | 52 | 102 | 3.0 | 4.0 | 0.00 | 0.00 | 0.00 | 58 | 1014.3 |
| 20260506184503 | 53 | 93 | 3.0 | 6.0 | 0.00 | 0.00 | 0.00 | 56 | 1014.3 |
| 20260506183603 | 53 | 90 | 4.0 | 7.0 | 0.00 | 0.00 | 0.00 | 55 | 1014.2 |
| 20260506182703 | 53 | 63 | 3.0 | 4.0 | 0.00 | 0.00 | 0.00 | 54 | 1014.2 |
| 20260506181803 | 54 | 79 | 2.0 | 4.0 | 0.00 | 0.00 | 0.00 | 54 | 1014.3 |
| 20260506180903 | 54 | 76 | 3.0 | 5.0 | 0.00 | 0.00 | 0.00 | 55 | 1014.2 |
| 20260506180004 | 54 | 85 | 5.0 | 8.0 | 0.00 | 0.00 | 0.00 | 55 | 1014.1 |
| 20260506175403 | 54 | 89 | 5.0 | 8.0 | 0.00 | 0.00 | 0.00 | 54 | 1014.0 |
| 20260506174503 | 54 | 82 | 5.0 | 7.0 | 0.00 | 0.00 | 0.00 | 54 | 1014.1 |
| 20260506173603 | 54 | 89 | 4.0 | 6.0 | 0.00 | 0.00 | 0.00 | 55 | 1014.0 |
| 20260506172703 | 54 | 93 | 5.0 | 10.0 | 0.00 | 0.00 | 0.00 | 54 | 1014.0 |
| 20260506171803 | 54 | 92 | 5.0 | 10.0 | 0.00 | 0.00 | 0.00 | 53 | 1014.0 |
| 20260506170903 | 55 | 81 | 4.0 | 7.0 | 0.00 | 0.00 | 0.00 | 54 | 1014.0 |
| 20260506170004 | 54 | 76 | 4.0 | 7.0 | 0.00 | 0.00 | 0.00 | 53 | 1014.0 |
| 20260506165618 | 54 | 81 | 4.0 | 7.0 | 0.00 | 0.00 | 0.00 | 53 | 1014.0 |
| 20260506164503 | 55 | 36 | 4.0 | 7.0 | 0.00 | 0.00 | 0.00 | 52 | 1014.0 |
| 20260506163603 | 55 | 62 | 4.0 | 6.0 | 0.00 | 0.00 | 0.00 | 52 | 1013.9 |
| 20260506162703 | 55 | 36 | 4.0 | 8.0 | 0.00 | 0.00 | 0.00 | 52 | 1013.9 |
| 20260506161803 | 55 | 57 | 5.0 | 8.0 | 0.00 | 0.00 | 0.00 | 52 | 1013.9 |
| 20260506160903 | 56 | 75 | 4.0 | 9.0 | 0.00 | 0.00 | 0.00 | 53 | 1013.9 |
| 20260506160003 | 56 | 15 | 4.0 | 9.0 | 0.00 | 0.00 | 0.00 | 51 | 1014.0 |
| 20260506155403 | 56 | 345 | 3.0 | 6.0 | 0.00 | 0.00 | 0.00 | 49 | 1013.9 |
| 20260506154717 | 56 | 16 | 3.0 | 6.0 | 0.00 | 0.00 | 0.00 | 48 | 1013.8 |
| 20260506153818 | 55 | 86 | 4.0 | 7.0 | 0.00 | 0.00 | 0.00 | 52 | 1013.9 |
| 20260506152703 | 56 | 91 | 4.0 | 7.0 | 0.00 | 0.00 | 0.00 | 52 | 1013.9 |
| 20260506151803 | 56 | 57 | 4.0 | 8.0 | 0.00 | 0.00 | 0.00 | 53 | 1014.0 |
| 20260506151116 | 55 | 90 | 5.0 | 9.0 | 0.00 | 0.00 | 0.00 | 54 | 1014.1 |
| 20260506150003 | 55 | 97 | 6.0 | 9.0 | 0.00 | 0.00 | 0.00 | 54 | 1014.0 |
| 20260506145403 | 55 | 90 | 5.0 | 9.0 | 0.00 | 0.00 | 0.00 | 52 | 1014.2 |
| 20260506144503 | 55 | 359 | 5.0 | 9.0 | 0.00 | 0.00 | 0.00 | 53 | 1014.2 |
| 20260506143603 | 56 | 34 | 6.0 | 10.0 | 0.00 | 0.00 | 0.00 | 54 | 1014.2 |
| 20260506142703 | 55 | 33 | 5.0 | 8.0 | 0.00 | 0.00 | 0.00 | 54 | 1014.2 |
| 20260506142016 | 54 | 59 | 5.0 | 7.0 | 0.00 | 0.00 | 0.00 | 55 | 1014.4 |
| 20260506140903 | 55 | 64 | 5.0 | 10.0 | 0.00 | 0.00 | 0.00 | 55 | 1014.5 |
| 20260506140003 | 54 | 60 | 5.0 | 9.0 | 0.00 | 0.00 | 0.00 | 54 | 1014.5 |
| 20260506135617 | 55 | 28 | 5.0 | 9.0 | 0.00 | 0.00 | 0.00 | 53 | 1014.4 |
| 20260506134718 | 55 | 6 | 6.0 | 10.0 | 0.00 | 0.00 | 0.00 | 54 | 1014.5 |
| 20260506133603 | 54 | 68 | 3.0 | 8.0 | 0.00 | 0.00 | 0.00 | 57 | 1014.6 |
| 20260506132917 | 54 | 71 | 5.0 | 10.0 | 0.00 | 0.00 | 0.00 | 56 | 1014.7 |
| 20260506132018 | 54 | 95 | 8.0 | 12.0 | 0.00 | 0.00 | 0.00 | 59 | 1014.7 |
| 20260506130903 | 55 | 55 | 6.0 | 10.0 | 0.00 | 0.00 | 0.00 | 57 | 1014.7 |
| 20260506130003 | 54 | 105 | 8.0 | 13.0 | 0.00 | 0.00 | 0.00 | 57 | 1014.7 |
| 20260506125403 | 54 | 77 | 5.0 | 10.0 | 0.00 | 0.00 | 0.00 | 57 | 1014.7 |
| 20260506124503 | 54 | 56 | 5.0 | 11.0 | 0.00 | 0.00 | 0.00 | 55 | 1014.7 |
| 20260506123603 | 54 | 44 | 5.0 | 10.0 | 0.00 | 0.00 | 0.00 | 56 | 1014.7 |
| 20260506122703 | 53 | 49 | 6.0 | 10.0 | 0.00 | 0.00 | 0.00 | 55 | 1014.7 |
| 20260506121803 | 54 | 50 | 6.0 | 11.0 | 0.00 | 0.00 | 0.00 | 56 | 1014.7 |
| 20260506121117 | 53 | 84 | 7.0 | 11.0 | 0.00 | 0.00 | 0.00 | 54 | 1014.9 |
| 20260506120219 | 53 | 42 | 6.0 | 11.0 | 0.00 | 0.00 | 0.00 | 56 | 1014.9 |
| 20260506115403 | 54 | 19 | 6.0 | 10.0 | 0.00 | 0.00 | 0.00 | 55 | 1014.8 |
| 20260506114503 | 53 | 44 | 7.0 | 11.0 | 0.00 | 0.00 | 0.00 | 53 | 1014.9 |
| 20260506113603 | 53 | 77 | 7.0 | 12.0 | 0.00 | 0.00 | 0.00 | 54 | 1014.9 |